Location: Boiro
(42.6475°N, 8.8834°W)
Time: 22:47:37
(UTC+01:00)

Tiros 1 - Pass Details

Date: 15 December 2021
Orbit: 629 x 664 km, 48.4° (Epoch: 18 January)

Event Time Altitude Azimuth Distance (km) Brightness Sun altitude
Rises 19:22:24 0° 290° (WNW) 2,919 11.4 -14.1°
Reaches altitude 10° 19:24:48 10° 297° (WNW) 2,014 10.3 -14.5°
Maximum altitude 19:29:15 45° 10° (N) 873 7.6 -15.3°
Enters shadow 19:31:21 27° 66° (ENE) 1,227 8.0 -15.6°
Drops below altitude 10° 19:33:43 10° 83° (E) 2,027 - -16.0°
Sets 19:36:09 0° 90° (E) 2,941 - -16.5°
